This is the latest recevied weather packets stored in our database for station/object AK4NG. If no packets are shown the sender has not sent any weather packets the latest 10 day(s).
| Time | Temp. | Humidity | Pressure | Rain* | Wind** | Luminosity | Snow |
|---|---|---|---|---|---|---|---|
| 1777999359 | 23.33° C | 54% | 1016.6 hPa | 0 mm | - | 820 W/m² | - |
| 1777999057 | 23.33° C | 52% | 1016.6 hPa | 0 mm | - | 801 W/m² | - |
| 1777998756 | 23.89° C | 52% | 1016.8 hPa | 0 mm | - | 851 W/m² | - |
| 1777998452 | 23.33° C | 54% | 1016.5 hPa | 0 mm | - | 821 W/m² | - |
| 1777998149 | 23.89° C | 53% | 1016.8 hPa | 0 mm | - | 768 W/m² | - |
| 1777997846 | 23.33° C | 53% | 1016.7 hPa | 0 mm | - | 813 W/m² | - |
| 1777997544 | 23.33° C | 53% | 1016.8 hPa | 0 mm | - | 629 W/m² | - |
| 1777997241 | 23.89° C | 50% | 1016.8 hPa | 0 mm | - | 806 W/m² | - |
| 1777996939 | 23.89° C | 50% | 1017 hPa | 0 mm | - | 791 W/m² | - |
| 1777996635 | 23.33° C | 51% | 1017 hPa | 0 mm | - | 814 W/m² | - |
| 1777996331 | 23.33° C | 52% | 1017 hPa | 0 mm | - | 813 W/m² | - |
| 1777996028 | 23.89° C | 48% | 1017.2 hPa | 0 mm | - | 784 W/m² | - |
| 1777995724 | 23.33° C | 54% | 1017.1 hPa | 0 mm | - | 781 W/m² | - |
| 1777995420 | 22.78° C | 53% | 1017.3 hPa | 0 mm | - | 780 W/m² | - |
| 1777995118 | 22.78° C | 57% | 1017.2 hPa | 0 mm | - | 749 W/m² | - |
| 1777994815 | 22.22° C | 54% | 1017.2 hPa | 0 mm | - | 724 W/m² | - |
| 1777994510 | 22.22° C | 57% | 1017.3 hPa | 0 mm | - | 730 W/m² | - |
| 1777994206 | 22.22° C | 56% | 1017.2 hPa | 0 mm | - | 700 W/m² | - |
| 1777993903 | 22.22° C | 59% | 1017.1 hPa | 0 mm | - | 686 W/m² | - |
| 1777993599 | 22.22° C | 55% | 1017.1 hPa | 0 mm | - | 646 W/m² | - |
| 1777993297 | 22.22° C | 58% | 1017.1 hPa | 0 mm | - | 621 W/m² | - |
| 1777992992 | 21.67° C | 60% | 1017.1 hPa | 0 mm | - | 624 W/m² | - |
| 1777992691 | 21.11° C | 61% | 1017.2 hPa | 0 mm | - | 596 W/m² | - |
| 1777992388 | 21.11° C | 60% | 1017.1 hPa | 0 mm | - | 590 W/m² | - |
| 1777992085 | 21.11° C | 61% | 1017.2 hPa | 0 mm | - | 612 W/m² | - |
* Rain latest hour (hover to see other rain measurements)
** Current wind speed in m/s (hover to see current wind gust speed)